Time,TemperatureF,DewpointF,PressureIn,WindDirection,WindDirectionDegrees,WindSpeedMPH,WindSpeedGustMPH,Humidity,HourlyPrecipIn,Conditions,Clouds,dailyrainin,SoftwareType,DateUTC
2013-02-13 00:09:00,31.4,26.0,29.90,WNW,294,2.0,-999.0,79,-99.99,,,0.00,weatherlink.com 1.10,2013-02-13 05:09:00,
2013-02-13 00:24:00,31.4,26.0,29.90,WNW,292,3.0,-999.0,79,-99.99,,,0.00,weatherlink.com 1.10,2013-02-13 05:24:00,
2013-02-13 00:39:00,31.3,26.0,29.90,WSW,255,0.0,-999.0,79,-99.99,,,0.00,weatherlink.com 1.10,2013-02-13 05:39:00,
2013-02-13 01:24:00,31.3,26.0,29.89,WNW,291,0.0,-999.0,80,-99.99,,,0.00,weatherlink.com 1.10,2013-02-13 06:24:00,
2013-02-13 01:39:00,31.3,26.0,29.89,West,269,1.0,-999.0,80,-99.99,,,0.00,weatherlink.com 1.10,2013-02-13 06:39:00,
2013-02-13 01:54:00,31.2,26.0,29.89,WSW,256,1.0,-999.0,80,-99.99,,,0.00,weatherlink.com 1.10,2013-02-13 06:54:00,
2013-02-13 02:24:00,31.1,26.0,29.89,WNW,286,5.0,-999.0,82,-99.99,,,0.00,weatherlink.com 1.10,2013-02-13 07:24:00,
2013-02-13 02:39:00,31.0,26.0,29.89,West,269,0.0,-999.0,82,-99.99,,,0.00,weatherlink.com 1.10,2013-02-13 07:39:00,
2013-02-13 02:55:00,30.9,26.0,29.88,West,261,5.0,-999.0,83,-99.99,,,0.00,weatherlink.com 1.10,2013-02-13 07:55:00,
2013-02-13 03:10:00,30.9,26.0,29.89,West,268,0.0,-999.0,83,-99.99,,,0.00,weatherlink.com 1.10,2013-02-13 08:10:00,
2013-02-13 03:40:00,30.7,26.0,29.88,West,267,0.0,-999.0,83,-99.99,,,0.00,weatherlink.com 1.10,2013-02-13 08:40:00,
2013-02-13 03:55:00,30.7,26.0,29.88,WSW,249,2.0,-999.0,82,-99.99,,,0.00,weatherlink.com 1.10,2013-02-13 08:55:00,
2013-02-13 04:10:00,30.6,25.0,29.87,West,265,4.0,-999.0,81,-99.99,,,0.00,weatherlink.com 1.10,2013-02-13 09:10:00,
2013-02-13 04:25:00,30.7,25.0,29.87,West,276,2.0,-999.0,80,-99.99,,,0.00,weatherlink.com 1.10,2013-02-13 09:25:00,
2013-02-13 04:40:00,30.6,25.0,29.87,West,272,1.0,-999.0,80,-99.99,,,0.00,weatherlink.com 1.10,2013-02-13 09:40:00,
2013-02-13 04:55:00,30.5,25.0,29.87,West,272,0.0,-999.0,80,-99.99,,,0.00,weatherlink.com 1.10,2013-02-13 09:55:00,
2013-02-13 05:25:00,30.3,25.0,29.86,West,272,0.0,-999.0,80,-99.99,,,0.00,weatherlink.com 1.10,2013-02-13 10:25:00,
2013-02-13 06:10:00,30.4,25.0,29.86,West,272,0.0,-999.0,81,-99.99,,,0.00,weatherlink.com 1.10,2013-02-13 11:10:00,
2013-02-13 06:55:00,29.4,25.0,29.86,West,272,0.0,-999.0,84,-99.99,,,0.00,weatherlink.com 1.10,2013-02-13 11:55:00,
2013-02-13 07:10:00,29.7,25.0,29.86,West,272,0.0,-999.0,83,-99.99,,,0.00,weatherlink.com 1.10,2013-02-13 12:10:00,
2013-02-13 07:40:00,30.0,25.0,29.86,West,272,0.0,-999.0,83,-99.99,,,0.00,weatherlink.com 1.10,2013-02-13 12:40:00,
2013-02-13 07:55:00,29.9,25.0,29.86,West,272,0.0,-999.0,83,-99.99,,,0.00,weatherlink.com 1.10,2013-02-13 12:55:00,
2013-02-13 08:10:00,29.7,26.0,29.85,West,272,2.0,-999.0,85,-99.99,,,0.00,weatherlink.com 1.10,2013-02-13 13:10:00,
2013-02-13 08:25:00,30.0,26.0,29.85,West,272,0.0,-999.0,85,-99.99,,,0.00,weatherlink.com 1.10,2013-02-13 13:25:00,
2013-02-13 08:40:00,30.7,26.0,29.84,West,269,0.0,-999.0,82,-99.99,,,0.00,weatherlink.com 1.10,2013-02-13 13:40:00,
2013-02-13 08:55:00,31.4,26.0,29.84,WSW,237,2.0,-999.0,80,-99.99,,,0.00,weatherlink.com 1.10,2013-02-13 13:55:00,
2013-02-13 09:10:00,32.0,26.0,29.84,SW,219,1.0,-999.0,77,-99.99,,,0.00,weatherlink.com 1.10,2013-02-13 14:10:00,
2013-02-13 09:25:00,32.3,25.0,29.84,West,269,2.0,-999.0,75,-99.99,,,0.00,weatherlink.com 1.10,2013-02-13 14:25:00,
2013-02-13 09:55:00,33.0,24.0,29.84,West,271,3.0,-999.0,70,-99.99,,,0.00,weatherlink.com 1.10,2013-02-13 14:55:00,
2013-02-13 10:10:00,33.0,24.0,29.83,West,270,0.0,-999.0,69,-99.99,,,0.00,weatherlink.com 1.10,2013-02-13 15:10:00,
2013-02-13 10:40:00,33.1,24.0,29.83,SW,229,4.0,-999.0,69,-99.99,,,0.00,weatherlink.com 1.10,2013-02-13 15:40:00,
2013-02-13 10:55:00,33.5,24.0,29.82,WSW,255,1.0,-999.0,68,-99.99,,,0.00,weatherlink.com 1.10,2013-02-13 15:55:00,
2013-02-13 11:10:00,35.7,25.0,29.82,WSW,244,5.0,-999.0,64,-99.99,,,0.00,weatherlink.com 1.10,2013-02-13 16:10:00,
2013-02-13 11:25:00,35.6,23.0,29.82,SW,236,10.0,-999.0,61,-99.99,,,0.00,weatherlink.com 1.10,2013-02-13 16:25:00,
2013-02-13 12:11:00,35.9,23.0,29.79,SW,227,1.0,-999.0,60,-99.99,,,0.00,weatherlink.com 1.10,2013-02-13 17:11:00,
2013-02-13 12:41:00,35.7,23.0,29.78,SW,231,3.0,-999.0,60,-99.99,,,0.00,weatherlink.com 1.10,2013-02-13 17:41:00,
2013-02-13 12:56:00,36.0,24.0,29.78,SSW,213,7.0,-999.0,62,-99.99,,,0.00,weatherlink.com 1.10,2013-02-13 17:56:00,
2013-02-13 13:11:00,36.3,24.0,29.78,SW,224,4.0,-999.0,62,-99.99,,,0.00,weatherlink.com 1.10,2013-02-13 18:11:00,
2013-02-13 13:26:00,36.2,24.0,29.77,SW,220,4.0,-999.0,61,-99.99,,,0.00,weatherlink.com 1.10,2013-02-13 18:26:00,
2013-02-13 13:41:00,37.3,24.0,29.77,WNW,287,0.0,-999.0,58,-99.99,,,0.00,weatherlink.com 1.10,2013-02-13 18:41:00,
2013-02-13 13:56:00,36.8,24.0,29.77,West,278,0.0,-999.0,61,-99.99,,,0.00,weatherlink.com 1.10,2013-02-13 18:56:00,
2013-02-13 14:11:00,36.5,23.0,29.75,West,260,2.0,-999.0,59,-99.99,,,0.00,weatherlink.com 1.10,2013-02-13 19:11:00,
2013-02-13 14:26:00,36.2,24.0,29.75,South,179,6.0,-999.0,61,-99.99,,,0.00,weatherlink.com 1.10,2013-02-13 19:26:00,
2013-02-13 14:41:00,36.6,24.0,29.75,SW,228,5.0,-999.0,60,-99.99,,,0.00,weatherlink.com 1.10,2013-02-13 19:41:00,
2013-02-13 14:56:00,37.8,24.0,29.74,SW,232,0.0,-999.0,58,-99.99,,,0.00,weatherlink.com 1.10,2013-02-13 19:56:00,
2013-02-13 15:11:00,37.3,24.0,29.74,SW,234,3.0,-999.0,58,-99.99,,,0.00,weatherlink.com 1.10,2013-02-13 20:11:00,
2013-02-13 15:26:00,38.7,24.0,29.74,SW,228,0.0,-999.0,56,-99.99,,,0.00,weatherlink.com 1.10,2013-02-13 20:26:00,
2013-02-13 15:41:00,37.9,23.0,29.73,SSW,209,5.0,-999.0,56,-99.99,,,0.00,weatherlink.com 1.10,2013-02-13 20:41:00,
2013-02-13 15:56:00,37.7,23.0,29.73,SSW,209,0.0,-999.0,56,-99.99,,,0.00,weatherlink.com 1.10,2013-02-13 20:56:00,
2013-02-13 16:11:00,38.3,23.0,29.72,SSW,209,0.0,-999.0,55,-99.99,,,0.00,weatherlink.com 1.10,2013-02-13 21:11:00,
2013-02-13 16:26:00,38.2,24.0,29.71,NW,309,0.0,-999.0,57,-99.99,,,0.00,weatherlink.com 1.10,2013-02-13 21:26:00,
2013-02-13 16:41:00,37.3,23.0,29.71,NW,309,0.0,-999.0,57,-99.99,,,0.00,weatherlink.com 1.10,2013-02-13 21:41:00,
2013-02-13 17:11:00,35.4,23.0,29.71,NW,309,0.0,-999.0,60,-99.99,,,0.00,weatherlink.com 1.10,2013-02-13 22:11:00,
2013-02-13 17:42:00,34.1,23.0,29.71,NW,309,2.0,-999.0,63,-99.99,,,0.00,weatherlink.com 1.10,2013-02-13 22:42:00,
2013-02-13 17:57:00,34.1,23.0,29.72,NW,311,1.0,-999.0,63,-99.99,,,0.00,weatherlink.com 1.10,2013-02-13 22:57:00,
2013-02-13 18:12:00,33.6,23.0,29.72,NNW,329,0.0,-999.0,65,-99.99,,,0.00,weatherlink.com 1.10,2013-02-13 23:12:00,
2013-02-13 18:27:00,31.5,23.0,29.72,NNW,329,0.0,-999.0,71,-99.99,,,0.00,weatherlink.com 1.10,2013-02-13 23:27:00,
2013-02-13 18:42:00,31.9,23.0,29.72,NW,325,2.0,-999.0,70,-99.99,,,0.00,weatherlink.com 1.10,2013-02-13 23:42:00,
2013-02-13 18:57:00,29.6,23.0,29.72,NW,325,0.0,-999.0,75,-99.99,,,0.00,weatherlink.com 1.10,2013-02-13 23:57:00,
2013-02-13 19:12:00,30.4,23.0,29.73,NNW,346,0.0,-999.0,74,-99.99,,,0.00,weatherlink.com 1.10,2013-02-14 00:12:00,
2013-02-13 19:27:00,31.2,23.0,29.73,NE,42,2.0,-999.0,72,-99.99,,,0.00,weatherlink.com 1.10,2013-02-14 00:27:00,
2013-02-13 20:12:00,28.3,22.0,29.75,ENE,63,0.0,-999.0,78,-99.99,,,0.00,weatherlink.com 1.10,2013-02-14 01:12:00,
2013-02-13 20:42:00,27.4,22.0,29.75,ENE,64,0.0,-999.0,81,-99.99,,,0.00,weatherlink.com 1.10,2013-02-14 01:42:00,
2013-02-13 20:57:00,27.0,22.0,29.75,ENE,64,0.0,-999.0,81,-99.99,,,0.00,weatherlink.com 1.10,2013-02-14 01:57:00,
2013-02-13 21:12:00,26.2,22.0,29.75,ENE,64,0.0,-999.0,83,-99.99,,,0.00,weatherlink.com 1.10,2013-02-14 02:12:00,
2013-02-13 21:27:00,26.3,22.0,29.76,ENE,64,0.0,-999.0,85,-99.99,,,0.00,weatherlink.com 1.10,2013-02-14 02:27:00,
2013-02-13 21:42:00,26.3,22.0,29.76,ENE,64,0.0,-999.0,84,-99.99,,,0.00,weatherlink.com 1.10,2013-02-14 02:42:00,
2013-02-13 21:57:00,25.6,21.0,29.76,ENE,64,0.0,-999.0,84,-99.99,,,0.00,weatherlink.com 1.10,2013-02-14 02:57:00,
2013-02-13 22:12:00,25.9,22.0,29.76,ENE,64,0.0,-999.0,85,-99.99,,,0.00,weatherlink.com 1.10,2013-02-14 03:12:00,
2013-02-13 22:27:00,25.1,21.0,29.76,ENE,64,0.0,-999.0,85,-99.99,,,0.00,weatherlink.com 1.10,2013-02-14 03:27:00,
2013-02-13 22:42:00,24.7,21.0,29.76,ENE,64,0.0,-999.0,86,-99.99,,,0.00,weatherlink.com 1.10,2013-02-14 03:42:00,
2013-02-13 22:57:00,24.8,22.0,29.77,ENE,64,0.0,-999.0,87,-99.99,,,0.00,weatherlink.com 1.10,2013-02-14 03:57:00,
2013-02-13 23:13:00,24.1,21.0,29.77,ENE,64,0.0,-999.0,86,-99.99,,,0.00,weatherlink.com 1.10,2013-02-14 04:13:00,
2013-02-13 23:43:00,23.8,21.0,29.77,ENE,64,0.0,-999.0,89,-99.99,,,0.00,weatherlink.com 1.10,2013-02-14 04:43:00,
2013-02-13 23:57:00,23.6,21.0,29.78,ENE,64,0.0,-999.0,88,-99.99,,,0.00,weatherlink.com 1.10,2013-02-14 04:57:00,